Weather History for Lafayette, IN

Change the Weather History Date:

Tuesday, May 28, 2013

  Actual Average Record
Temperature  
Mean Temperature 72 °F 66 °F  
Max Temperature 80 °F 77 °F 93 °F (2012)
Min Temperature 63 °F 55 °F 38 °F (1971)
Degree Days  
Heating Degree Days 0 3  
Month to date heating degree days 136 153  
Since 1 July heating degree days 5893 5643  
Cooling Degree Days 7 4  
Month to date cooling degree days 69 54  
Year to date cooling degree days 72 67  
Growing Degree Days 22 (Base 50)    
Moisture  
Dew Point 64 °F    
Average Humidity 81    
Maximum Humidity 100    
Minimum Humidity 62    
Precipitation  
Precipitation 0.02 in 0.13 in 1.33 in (1956)
Month to date precipitation 2.66 3.75  
Year to date precipitation 18.21 13.58  
Sea Level Pressure  
Sea Level Pressure 29.87 in    
Wind  
Wind Speed 8 mph (SSW)    
Max Wind Speed 20 mph    
Max Gust Speed 30 mph    
Visibility 10 miles    
Events      
T = Trace of Precipitation, MM = Missing Value Source: NWS Daily Summary

Daily Weather History Graph

Daily Weather History Graph

Search for Another Location

Airport:

Trip Planner

Search our weather history database for the weather conditions in past years. The results will help you decide how hot, cold, wet, or windy it might be!

Date:

Astronomy

May. 28, 2013 Rise Set
Actual Time 6:21 AM EDT 9:09 PM EDT
Civil Twilight 5:49 AM EDT 9:41 PM EDT
Nautical Twilight 5:09 AM EDT 10:21 PM EDT
Astronomical Twilight 4:22 AM EDT 11:08 PM EDT
Moon No Moon Rise 10:09 AM EDT (5/28)
Length of Visible Light 15h 51m
Length of Day
14h 47m
Waning Gibbous, 83% of the Moon is Illuminated
May 28
Waning Gibbous
May 31
Last Quarter
Jun 8
New
Jun 16
First Quarter
Jun 23
Full

Hourly Weather History & Observations

Time (EDT) Temp. Heat Index Dew Point Humidity Pressure Visibility Wind Dir Wind Speed Gust Speed Precip Events Conditions
12:54 AM 63.0 °F - 62.1 °F 97% 29.93 in 10.0 mi SSW 3.5 mph - N/A   Mostly Cloudy
1:54 AM 64.0 °F - 63.0 °F 96% 29.92 in 10.0 mi SSW 5.8 mph - 0.02 in   Overcast
2:54 AM 63.0 °F - 62.1 °F 97% 29.90 in 10.0 mi South 6.9 mph - N/A   Partly Cloudy
3:54 AM 63.0 °F - 62.1 °F 97% 29.87 in 10.0 mi South 3.5 mph - N/A   Mostly Cloudy
4:54 AM 64.0 °F - 61.0 °F 90% 29.88 in 10.0 mi SSW 4.6 mph - N/A   Clear
5:54 AM 64.9 °F - 60.1 °F 84% 29.87 in 10.0 mi SSW 6.9 mph - N/A   Clear
6:54 AM 66.0 °F - 60.1 °F 81% 29.88 in 10.0 mi SSW 5.8 mph - N/A   Clear
7:54 AM 66.9 °F - 61.0 °F 81% 29.90 in 10.0 mi SSW 8.1 mph - N/A   Mostly Cloudy
8:54 AM 68.0 °F - 62.1 °F 81% 29.88 in 10.0 mi SSW 9.2 mph - N/A   Overcast
9:54 AM 70.0 °F - 63.0 °F 78% 29.90 in 10.0 mi South 8.1 mph 20.7 mph N/A   Mostly Cloudy
10:54 AM 72.0 °F - 64.0 °F 76% 29.90 in 10.0 mi SW 10.4 mph 25.3 mph N/A   Overcast
11:54 AM 72.0 °F - 64.0 °F 76% 29.89 in 10.0 mi SSW 8.1 mph 16.1 mph N/A   Partly Cloudy
12:54 PM 75.0 °F - 64.9 °F 71% 29.87 in 10.0 mi SSW 16.1 mph 25.3 mph N/A   Clear
1:54 PM 75.9 °F - 66.0 °F 71% 29.85 in 10.0 mi SW 16.1 mph 27.6 mph N/A   Partly Cloudy
2:54 PM 78.1 °F - 66.0 °F 66% 29.85 in 10.0 mi SW 12.7 mph 27.6 mph N/A   Partly Cloudy
3:54 PM 79.0 °F - 66.0 °F 64% 29.85 in 10.0 mi SSW 12.7 mph 23.0 mph N/A   Partly Cloudy
4:54 PM 79.0 °F - 66.9 °F 66% 29.86 in 10.0 mi SW 10.4 mph 17.3 mph N/A   Mostly Cloudy
5:54 PM 79.0 °F - 66.0 °F 64% 29.85 in 10.0 mi SSW 11.5 mph 16.1 mph N/A   Clear
6:54 PM 80.1 °F 82.1 °F 66.0 °F 62% 29.85 in 10.0 mi SSW 10.4 mph 20.7 mph N/A   Scattered Clouds
7:54 PM 79.0 °F - 64.9 °F 62% 29.84 in 10.0 mi SSW 8.1 mph - N/A   Mostly Cloudy
8:54 PM 75.9 °F - 64.0 °F 67% 29.83 in 10.0 mi South 5.8 mph - N/A   Partly Cloudy
9:54 PM 75.9 °F - 64.0 °F 67% 29.83 in 10.0 mi South 6.9 mph - N/A   Mostly Cloudy
10:54 PM 73.9 °F - 64.0 °F 71% 29.89 in 10.0 mi SW 5.8 mph - N/A   Overcast
11:54 PM 73.0 °F - 64.0 °F 73% 29.89 in 10.0 mi WSW 3.5 mph - N/A   Overcast